Погода в Клаипеде

Поиск расширенной информации на нашем сайте:

Полезная информация:

Новости сайта



02.01.2020
Опубликован Долгосрочный прогноз погоды по городам России и ближнего зарубежья на январь 2020 года.
Карты: Прогноз на январь и февраль 2020 года, Сравнение прогнозируемой аномалии приземной температуры воздуха на январь 2020 года по разным моделям.




Погода в Клаипеде - сегодня

Время (UTC), дата Ветер
(°,м/с) 
Видим.   Явления Облачность Т
(°С)
Тd
(°С)
f(%) Тe
(°С)
Pmin
(гПа)
dP
(гПа)
Po
(мм)
O2
(г/м3)
Тmin Tmax R s Состояние
почвы
15 19.10.20 290 (З) 6-11{12}  20000 м    3/1 600 м верхняя 
[Cu med, cong|Ci fib]
+9.8 +1.4 56 +8  1015.3  0.5  761  296           
18 19.10.20 300 (СЗ) 5-9{11}  20000 м    3/3 1000 м 
[Cu med, cong]
+9.8 +1.3 55 +9  1016.1  0.8  761  296    +10.8       
21 19.10.20 310 (СЗ) 5-10{11}  20000 м    1/1 1000 м 
[Cu med, cong]
+9.8 -0.1 50 +9  1017.4  1.3  762  297           
00 20.10.20 310 (СЗ) 4-8{10}  20000 м    6/1 1000 м верхняя 
[Cu med, cong|Ci sp]
+9.3 +0.4 54 +8  1018.7  1.3  763  297           
03 20.10.20 310 (СЗ) 4-7{09}  20000 м    3/1 1000 м верхняя 
[Cu hum|Ci fib]
+8.8 +0.2 55 +8  1019.8  1.1  764  298           
06 20.10.20 290 (З) 3-6{08}  20000 м    ясно 
+8.7 +0.2 55 +8  1021.4  1.6  765  299  +8.4        влажная 
09 20.10.20 260 (З) 1-3{05}  20000 м    6/0 верхняя 
[Ci sp]
+10.3 +0.6 51 +11  1022.2  0.8  766  297           
12 20.10.20 150 (ЮВ) 2-5{06}  20000 м    8/0 средняя 
[Ac trans]
+11.4 +4.3 62 +12  1021.3  -0.9  765  295           
15 20.10.20 160 (Ю) 3-5{06}  20000 м    10/0 средняя, верхняя 
[Ac trans|Ci sp]
+8.9 +6.8 87 +8  1019.9  -1.4  764  297           
18 20.10.20 150 (ЮВ) 3-6{07}  20000 м    10/0 средняя 
[Ac As]
+8.4 +5.9 84 +8  1018.2  -1.7  763  297    +12.3       
21 20.10.20 150 (ЮВ) 4-8{11}  20000 м    10/0 средняя 
[Ac As]
+8.5 +5.1 79 +7  1014.8  -3.4  760  296           
00 21.10.20 150 (ЮВ) 4-9{09}  20000 м  {ливн. осадки}  10/10 1000 м 
[Sc]
+8.4 +5.3 81 +7  1011.8  -3  758  296      0.0     
03 21.10.20 200 (Ю) 5-8{09}  20000 м    8/8 500 м 
[Sc]
+10.2 +7.3 82 +9  1010.6  -1.2  757  293           
06 21.10.20 190 (Ю) 4-8{09}  17000 м    10/10 330 м 
[Sc]
+10.6 +8.7 88 +10  1009.9  -0.7  757  292  +8.1    0.0    влажная 
09 21.10.20 220 (ЮЗ) 4-7{09}  17000 м    10/10 570 м 
[Sc]
+11.9 +8.7 81 +11  1011  1.1  758  291           
12 21.10.20 140 (ЮВ) 2-4{07}  8000 м  дымка  10/10 420 м 
[St]
+9.8 +8.2 90 +10  1010.9  0.1  758  293           
15 21.10.20 150 (ЮВ) 2-3{06}  13000 м  в посл. час дождь  10/10 360 м 
[St]
+10.2 +8.5 89 +10  1010.4  -0.5  757  293           
18 21.10.20 160 (Ю) 2-3{05}  2000 м  слаб. дождь  10/10 60 м 
[Frnb|Ns]
+10.2 +9.5 95 +10  1009.2  -1.2  756  292    +12     
21 21.10.20 180 (Ю) 3-7{10}  3100 м  слаб. дождь  10/10 150 м 
[Frnb|Ns]
+11.2 +10.6 96 +13  1008.1  -1.1  755  290           
00 22.10.20 160 (Ю) 3-7{08}  6000 м  дымка{дождь}  10/10 300 м 
[Sc]
+10.1 +9.5 96 +10  1005.9  -2.2  754  291         
03 22.10.20 180 (Ю) 3-6{09}  6000 м  дымка{дождь}  9/6 1500 м средняя 
[Sc|Ac trans]
+11.2 +10 92 +12  1004  -1.9  752  289           
06 22.10.20 210 (ЮЗ) 5-11{10}  19000 м  {дождь}  10/10 600 м 
[Sc]
+12.7 +10.1 84 +13  1002.9  -1.1  752  288  +9.7      влажная 
09 22.10.20 230 (ЮЗ) 7-12{14}  20000 м    10/10 700 м 
[Sc]
+13.8 +10.8 82 +15  1003.4  0.5  752  286           
12 22.10.20 260 (З) 8-16{16}  20000 м    10/10 630 м 
[Sc]
+14.2 +11.2 82 +16  1005.3  1.9  753  286           
15 22.10.20 260 (З) 6-12{16}  20000 м    3/3 450 м 
[Sc]
+13.3 +11.3 88 +15  1008.2  2.9  755  288           
Время (UTC), дата Ветер
(°,м/с) 
Видим.   Явления Облачность Т
(°С)
Тd
(°С)
f(%) Тe
(°С)
Pmin
(гПа)
dP
(гПа)
Po
(мм)
O2
(г/м3)
Тmin Tmax R s Состояние
почвы

Для получения пояснительной информации подведите курсор к названию столбца.

ПОГОДА в Клаипеде - архив

Всё, что Вы хотите узнать о погоде в Клаипеде - удобно и подробно!

Выберите нужную дату (начиная с 1 января 2019* года) и нажмите кнопку "Найти".
Будут отображены архивные сводки погоды по пункту Клаипеда, начиная с указанной даты.


Отображать данные в формате CSV (для использования в таблицах Excel)


Внимание! Наш архив погоды предназначен исключительно для личного некоммерческого использования в познавательных целях. Если Вам необходимы официальные справки о состоянии погоды (для производственных, юридических, коммерческих и т.п. целей), обращайтесь в органы Росгидромета.

*Примечание: данная дата относится к архиву по метеостанциям СССР (Россия, СНГ, Балтия).
Архив по метеостанциям Зарубежной Европы и Азии (кроме Китая) хранится 10 дней, по другим регионам земного шара (Китай, Африка, Америка, Австралия, Океания) - 1 день.

Клаипеда - район местоположения метеостанции


Название, широта, долгота, высота метеостанции:
Клаипеда 55.7°ш. 21.1°д. 7 м над ур. моря [Литва]

Дополнительная информация

В oтличие oт бoльшинства пoгoдных сайтoв мы публикуем пoдрoбную метеoинфoрмацию в детальнoм прoфессиoнальнoм фoрмате.

Характеристики температуры и влажнoсти вoздуха измеряются на высoте 2 м в тени вдали oт зданий и деревьев.
Скoрoсть ветра измеряется на высoте 10 м (на урoвне рoста челoвека скoрoсть ветра ниже в 1.5-2 раза). Если метеoстанция нахoдится в гoрoде или в лесу, тo скoрoсть ветра занижена на 2-4 м/с пo сравнению с oткрытым местoм. Скoрoсть ветра над акватoриями крупных рек и oзёр, а также на вершинах хoлмoв на 2-5 м/с выше, чем в oбычных услoвиях.
Атмoсфернoе давление в разных тoчках местнoсти мoжет значительнo oтличаться oт давления на метеoстанции, в зависимoсти oт услoвий рельефа (при пoдъёме на 10 м давление пoнижается примернo на 1 мм рт.ст.).